Regional Weather Roundup
Issued by NWS

Home | Current Version | Previous Version | Graphics & Text | Print | Product List | Glossary On
Versions: 1 2 3 4 5 6 7 8 9 10 11 12 13 14 15 16 17 18 19 20 21 22 23 24 25 26 27 28 29 30 31 32 33 34 35 36 37 38 39 40 41 42 43 44 45 46 47 48 49 50
000
ASUS43 KFSD 201902
RWRSD

WEATHER ROUNDUP FOR SOUTH DAKOTA
NATIONAL WEATHER SERVICE SIOUX FALLS SD
200 PM CDT SUN MAY 20 2018

NOTE: "FAIR" INDICATES FEW OR NO CLOUDS BELOW 12,000 FEET WITH NO
SIGNIFICANT WEATHER AND/OR OBSTRUCTIONS TO VISIBILITY.


SDZ001>005-009-010-012>017-202000-
NORTHWEST AND NORTH CENTRAL SOUTH DAKOTA

CITY           SKY/WX    TMP DP  RH WIND       PRES   REMARKS
BUFFALO          N/A     63  32  31 SE21G29   30.11F
FAITH            N/A     61  38  42 S12G17    30.21F
MOBRIDGE       MOSUNNY   66  37  34 E10       30.20F
$$

SDZ012>016-024>037-041>051-057-063-072>074-202000-
SOUTHWEST AND SOUTH CENTRAL SOUTH DAKOTA

CITY           SKY/WX    TMP DP  RH WIND       PRES   REMARKS
RAPID CTY ARPT PTSUNNY   57  37  47 VRB6      30.20F
PIERRE         MOSUNNY   63  38  39 E13       30.20F
CUSTER         CLOUDY    51  30  44 S7        30.21F
ELLSWORTH AFB  PTSUNNY   58  36  44 S9        30.19F
PHILIP         MOSUNNY   63  40  42 NE8       30.20F
PINE RIDGE     CLOUDY    59  36  42 VRB3      30.21F
SPEARFISH      FAIR      59  41  51 E12       30.17F
WINNER         CLOUDY    62  39  42 NE15G21   30.20F
$$

SDZ004>011-016>023-039-040-202000-
NORTHEAST SOUTH DAKOTA

CITY           SKY/WX    TMP DP  RH WIND       PRES   REMARKS
ABERDEEN       MOSUNNY   68  26  20 E10G24    30.22F
WATERTOWN      SUNNY     65  36  34 E13G20    30.20F
BROOKINGS      CLOUDY    62  27  26 E13G20    30.18F
SISSETON         N/A     68  28  22 E7        30.21F
$$

SDZ017-020-022-023-036>040-048>070-202000-
SOUTHEAST SOUTH DAKOTA

CITY           SKY/WX    TMP DP  RH WIND       PRES   REMARKS
SIOUX FALLS    CLOUDY    57  46  66 E5        30.18F
HURON          MOSUNNY   64  33  31 SE10G18   30.19F
CHAMBERLAIN    CLOUDY    60  45  57 E6        30.20F
MITCHELL       CLOUDY    57  39  51 NE12      30.21F
YANKTON        CLOUDY    53  48  83 NE9       30.19F
$$

ABBREVIATIONS USED IN REMARKS
   TC - TEMPERATURE IN CELSIUS
  WCI - WIND CHILL INDEX
   HX - HEAT INDEX
  VSB - VISIBILITY




USA.gov is the U.S. government's official web portal to all federal, state and local government web resources and services.